Index of /20260502/WXO-DD/model_gdps/15km/00/024
Name Last modified Size Description
Parent Directory -
20260502T00Z_MSC_GDPS_AbsoluteVorticity_IsbL-0200_LatLon0.15_PT024H.grib2 2026-05-02 03:56 1.5M
20260502T00Z_MSC_GDPS_AbsoluteVorticity_IsbL-0250_LatLon0.15_PT024H.grib2 2026-05-02 03:56 1.3M
20260502T00Z_MSC_GDPS_AbsoluteVorticity_IsbL-0500_LatLon0.15_PT024H.grib2 2026-05-02 03:56 1.5M
20260502T00Z_MSC_GDPS_AbsoluteVorticity_IsbL-0700_LatLon0.15_PT024H.grib2 2026-05-02 03:56 1.3M
20260502T00Z_MSC_GDPS_AbsoluteVorticity_IsbL-0850_LatLon0.15_PT024H.grib2 2026-05-02 03:56 1.6M
20260502T00Z_MSC_GDPS_AirTemp-Max_AGL-2m_LatLon0.15_PT024H.grib2 2026-05-02 03:56 741K
20260502T00Z_MSC_GDPS_AirTemp-Min_AGL-2m_LatLon0.15_PT024H.grib2 2026-05-02 03:56 794K
20260502T00Z_MSC_GDPS_AirTemp_AGL-120m_LatLon0.15_PT024H.grib2 2026-05-02 03:56 909K
20260502T00Z_MSC_GDPS_AirTemp_AGL-2m_LatLon0.15_PT024H.grib2 2026-05-02 03:56 1.0M
20260502T00Z_MSC_GDPS_AirTemp_AGL-40m_LatLon0.15_PT024H.grib2 2026-05-02 03:56 929K
20260502T00Z_MSC_GDPS_AirTemp_AGL-80m_LatLon0.15_PT024H.grib2 2026-05-02 03:56 918K
20260502T00Z_MSC_GDPS_AirTemp_IsbL-0001_LatLon0.15_PT024H.grib2 2026-05-02 03:56 651K
20260502T00Z_MSC_GDPS_AirTemp_IsbL-0005_LatLon0.15_PT024H.grib2 2026-05-02 03:56 682K
20260502T00Z_MSC_GDPS_AirTemp_IsbL-0010_LatLon0.15_PT024H.grib2 2026-05-02 03:56 694K
20260502T00Z_MSC_GDPS_AirTemp_IsbL-0020_LatLon0.15_PT024H.grib2 2026-05-02 03:56 782K
20260502T00Z_MSC_GDPS_AirTemp_IsbL-0030_LatLon0.15_PT024H.grib2 2026-05-02 03:56 752K
20260502T00Z_MSC_GDPS_AirTemp_IsbL-0050_LatLon0.15_PT024H.grib2 2026-05-02 03:56 808K
20260502T00Z_MSC_GDPS_AirTemp_IsbL-0100_LatLon0.15_PT024H.grib2 2026-05-02 03:56 959K
20260502T00Z_MSC_GDPS_AirTemp_IsbL-0150_LatLon0.15_PT024H.grib2 2026-05-02 03:56 1.0M
20260502T00Z_MSC_GDPS_AirTemp_IsbL-0175_LatLon0.15_PT024H.grib2 2026-05-02 03:56 963K
20260502T00Z_MSC_GDPS_AirTemp_IsbL-0200_LatLon0.15_PT024H.grib2 2026-05-02 03:56 972K
20260502T00Z_MSC_GDPS_AirTemp_IsbL-0225_LatLon0.15_PT024H.grib2 2026-05-02 03:56 1.0M
20260502T00Z_MSC_GDPS_AirTemp_IsbL-0250_LatLon0.15_PT024H.grib2 2026-05-02 03:56 1.0M
20260502T00Z_MSC_GDPS_AirTemp_IsbL-0275_LatLon0.15_PT024H.grib2 2026-05-02 03:56 1.0M
20260502T00Z_MSC_GDPS_AirTemp_IsbL-0300_LatLon0.15_PT024H.grib2 2026-05-02 03:56 1.0M
20260502T00Z_MSC_GDPS_AirTemp_IsbL-0350_LatLon0.15_PT024H.grib2 2026-05-02 03:56 928K
20260502T00Z_MSC_GDPS_AirTemp_IsbL-0400_LatLon0.15_PT024H.grib2 2026-05-02 03:56 940K
20260502T00Z_MSC_GDPS_AirTemp_IsbL-0450_LatLon0.15_PT024H.grib2 2026-05-02 03:56 965K
20260502T00Z_MSC_GDPS_AirTemp_IsbL-0500_LatLon0.15_PT024H.grib2 2026-05-02 03:56 1.0M
20260502T00Z_MSC_GDPS_AirTemp_IsbL-0550_LatLon0.15_PT024H.grib2 2026-05-02 03:56 802K
20260502T00Z_MSC_GDPS_AirTemp_IsbL-0600_LatLon0.15_PT024H.grib2 2026-05-02 03:56 895K
20260502T00Z_MSC_GDPS_AirTemp_IsbL-0650_LatLon0.15_PT024H.grib2 2026-05-02 03:56 919K
20260502T00Z_MSC_GDPS_AirTemp_IsbL-0700_LatLon0.15_PT024H.grib2 2026-05-02 03:56 952K
20260502T00Z_MSC_GDPS_AirTemp_IsbL-0750_LatLon0.15_PT024H.grib2 2026-05-02 03:56 1.0M
20260502T00Z_MSC_GDPS_AirTemp_IsbL-0800_LatLon0.15_PT024H.grib2 2026-05-02 03:56 1.1M
20260502T00Z_MSC_GDPS_AirTemp_IsbL-0850_LatLon0.15_PT024H.grib2 2026-05-02 03:56 1.1M
20260502T00Z_MSC_GDPS_AirTemp_IsbL-0875_LatLon0.15_PT024H.grib2 2026-05-02 03:56 1.1M
20260502T00Z_MSC_GDPS_AirTemp_IsbL-0900_LatLon0.15_PT024H.grib2 2026-05-02 03:56 1.1M
20260502T00Z_MSC_GDPS_AirTemp_IsbL-0925_LatLon0.15_PT024H.grib2 2026-05-02 03:56 1.1M
20260502T00Z_MSC_GDPS_AirTemp_IsbL-0950_LatLon0.15_PT024H.grib2 2026-05-02 03:56 1.1M
20260502T00Z_MSC_GDPS_AirTemp_IsbL-0970_LatLon0.15_PT024H.grib2 2026-05-02 03:56 1.1M
20260502T00Z_MSC_GDPS_AirTemp_IsbL-0985_LatLon0.15_PT024H.grib2 2026-05-02 03:56 1.1M
20260502T00Z_MSC_GDPS_AirTemp_IsbL-1000_LatLon0.15_PT024H.grib2 2026-05-02 03:56 1.1M
20260502T00Z_MSC_GDPS_AirTemp_IsbL-1015_LatLon0.15_PT024H.grib2 2026-05-02 03:56 1.1M
20260502T00Z_MSC_GDPS_Albedo_Sfc_LatLon0.15_PT024H.grib2 2026-05-02 03:56 242K
20260502T00Z_MSC_GDPS_CAPE_Sfc_LatLon0.15_PT024H.grib2 2026-05-02 03:56 3.7M
20260502T00Z_MSC_GDPS_CIN_Sfc_LatLon0.15_PT024H.grib2 2026-05-02 03:56 2.9M
20260502T00Z_MSC_GDPS_CloudWater_EAtm_LatLon0.15_PT024H.grib2 2026-05-02 03:56 529K
20260502T00Z_MSC_GDPS_ConvectivePrecip-Accum_Sfc_LatLon0.15_PT024H.grib2 2026-05-02 03:56 2.4M
20260502T00Z_MSC_GDPS_DewPointDepression_AGL-2m_LatLon0.15_PT024H.grib2 2026-05-02 03:56 765K
20260502T00Z_MSC_GDPS_DewPointDepression_IsbL-0010_LatLon0.15_PT024H.grib2 2026-05-02 03:56 69K
20260502T00Z_MSC_GDPS_DewPointDepression_IsbL-0020_LatLon0.15_PT024H.grib2 2026-05-02 03:56 68K
20260502T00Z_MSC_GDPS_DewPointDepression_IsbL-0030_LatLon0.15_PT024H.grib2 2026-05-02 03:56 75K
20260502T00Z_MSC_GDPS_DewPointDepression_IsbL-0050_LatLon0.15_PT024H.grib2 2026-05-02 03:56 373K
20260502T00Z_MSC_GDPS_DewPointDepression_IsbL-0100_LatLon0.15_PT024H.grib2 2026-05-02 03:56 415K
20260502T00Z_MSC_GDPS_DewPointDepression_IsbL-0150_LatLon0.15_PT024H.grib2 2026-05-02 03:56 469K
20260502T00Z_MSC_GDPS_DewPointDepression_IsbL-0175_LatLon0.15_PT024H.grib2 2026-05-02 03:56 578K
20260502T00Z_MSC_GDPS_DewPointDepression_IsbL-0200_LatLon0.15_PT024H.grib2 2026-05-02 03:56 685K
20260502T00Z_MSC_GDPS_DewPointDepression_IsbL-0225_LatLon0.15_PT024H.grib2 2026-05-02 03:56 785K
20260502T00Z_MSC_GDPS_DewPointDepression_IsbL-0250_LatLon0.15_PT024H.grib2 2026-05-02 03:56 864K
20260502T00Z_MSC_GDPS_DewPointDepression_IsbL-0275_LatLon0.15_PT024H.grib2 2026-05-02 03:56 885K
20260502T00Z_MSC_GDPS_DewPointDepression_IsbL-0300_LatLon0.15_PT024H.grib2 2026-05-02 03:56 926K
20260502T00Z_MSC_GDPS_DewPointDepression_IsbL-0350_LatLon0.15_PT024H.grib2 2026-05-02 03:56 954K
20260502T00Z_MSC_GDPS_DewPointDepression_IsbL-0400_LatLon0.15_PT024H.grib2 2026-05-02 03:56 1.0M
20260502T00Z_MSC_GDPS_DewPointDepression_IsbL-0450_LatLon0.15_PT024H.grib2 2026-05-02 03:56 1.0M
20260502T00Z_MSC_GDPS_DewPointDepression_IsbL-0500_LatLon0.15_PT024H.grib2 2026-05-02 03:56 1.0M
20260502T00Z_MSC_GDPS_DewPointDepression_IsbL-0550_LatLon0.15_PT024H.grib2 2026-05-02 03:56 1.0M
20260502T00Z_MSC_GDPS_DewPointDepression_IsbL-0600_LatLon0.15_PT024H.grib2 2026-05-02 03:56 1.0M
20260502T00Z_MSC_GDPS_DewPointDepression_IsbL-0650_LatLon0.15_PT024H.grib2 2026-05-02 03:56 1.1M
20260502T00Z_MSC_GDPS_DewPointDepression_IsbL-0700_LatLon0.15_PT024H.grib2 2026-05-02 03:56 1.1M
20260502T00Z_MSC_GDPS_DewPointDepression_IsbL-0750_LatLon0.15_PT024H.grib2 2026-05-02 03:56 1.1M
20260502T00Z_MSC_GDPS_DewPointDepression_IsbL-0800_LatLon0.15_PT024H.grib2 2026-05-02 03:56 1.1M
20260502T00Z_MSC_GDPS_DewPointDepression_IsbL-0850_LatLon0.15_PT024H.grib2 2026-05-02 03:56 1.1M
20260502T00Z_MSC_GDPS_DewPointDepression_IsbL-0875_LatLon0.15_PT024H.grib2 2026-05-02 03:56 1.1M
20260502T00Z_MSC_GDPS_DewPointDepression_IsbL-0900_LatLon0.15_PT024H.grib2 2026-05-02 03:56 1.1M
20260502T00Z_MSC_GDPS_DewPointDepression_IsbL-0925_LatLon0.15_PT024H.grib2 2026-05-02 03:56 1.0M
20260502T00Z_MSC_GDPS_DewPointDepression_IsbL-0950_LatLon0.15_PT024H.grib2 2026-05-02 03:56 1.0M
20260502T00Z_MSC_GDPS_DewPointDepression_IsbL-0970_LatLon0.15_PT024H.grib2 2026-05-02 03:56 1.0M
20260502T00Z_MSC_GDPS_DewPointDepression_IsbL-0985_LatLon0.15_PT024H.grib2 2026-05-02 03:56 1.0M
20260502T00Z_MSC_GDPS_DewPointDepression_IsbL-1000_LatLon0.15_PT024H.grib2 2026-05-02 03:56 1.0M
20260502T00Z_MSC_GDPS_DewPointDepression_IsbL-1015_LatLon0.15_PT024H.grib2 2026-05-02 03:56 915K
20260502T00Z_MSC_GDPS_DewPoint_AGL-2m_LatLon0.15_PT024H.grib2 2026-05-02 03:56 601K
20260502T00Z_MSC_GDPS_DownwardLongwaveRadiationFlux-Accum_Sfc_LatLon0.15_PT024H.grib2 2026-05-02 03:56 1.0M
20260502T00Z_MSC_GDPS_DownwardShortwaveRadiationFlux-Accum_NTAtm_LatLon0.15_PT024H.grib2 2026-05-02 03:56 241K
20260502T00Z_MSC_GDPS_DownwardShortwaveRadiationFlux-Accum_Sfc_LatLon0.15_PT024H.grib2 2026-05-02 03:56 1.2M
20260502T00Z_MSC_GDPS_FreezingRain-Accum12h_Sfc_LatLon0.15_PT024H.grib2 2026-05-02 03:56 95K
20260502T00Z_MSC_GDPS_FreezingRain-Accum1h_Sfc_LatLon0.15_PT024H.grib2 2026-05-02 03:56 30K
20260502T00Z_MSC_GDPS_FreezingRain-Accum24h_Sfc_LatLon0.15_PT024H.grib2 2026-05-02 03:56 135K
20260502T00Z_MSC_GDPS_FreezingRain-Accum3h_Sfc_LatLon0.15_PT024H.grib2 2026-05-02 03:56 37K
20260502T00Z_MSC_GDPS_FreezingRain-Accum6h_Sfc_LatLon0.15_PT024H.grib2 2026-05-02 03:56 56K
20260502T00Z_MSC_GDPS_FreezingRain-Accum_Sfc_LatLon0.15_PT024H.grib2 2026-05-02 03:56 154K
20260502T00Z_MSC_GDPS_GeopotentialHeight_IsbL-0001_LatLon0.15_PT024H.grib2 2026-05-02 03:56 429K
20260502T00Z_MSC_GDPS_GeopotentialHeight_IsbL-0005_LatLon0.15_PT024H.grib2 2026-05-02 03:56 491K
20260502T00Z_MSC_GDPS_GeopotentialHeight_IsbL-0010_LatLon0.15_PT024H.grib2 2026-05-02 03:56 481K
20260502T00Z_MSC_GDPS_GeopotentialHeight_IsbL-0020_LatLon0.15_PT024H.grib2 2026-05-02 03:56 413K
20260502T00Z_MSC_GDPS_GeopotentialHeight_IsbL-0030_LatLon0.15_PT024H.grib2 2026-05-02 03:56 566K
20260502T00Z_MSC_GDPS_GeopotentialHeight_IsbL-0050_LatLon0.15_PT024H.grib2 2026-05-02 03:56 566K
20260502T00Z_MSC_GDPS_GeopotentialHeight_IsbL-0100_LatLon0.15_PT024H.grib2 2026-05-02 03:56 606K
20260502T00Z_MSC_GDPS_GeopotentialHeight_IsbL-0150_LatLon0.15_PT024H.grib2 2026-05-02 03:56 624K
20260502T00Z_MSC_GDPS_GeopotentialHeight_IsbL-0175_LatLon0.15_PT024H.grib2 2026-05-02 03:56 627K
20260502T00Z_MSC_GDPS_GeopotentialHeight_IsbL-0200_LatLon0.15_PT024H.grib2 2026-05-02 03:56 631K
20260502T00Z_MSC_GDPS_GeopotentialHeight_IsbL-0225_LatLon0.15_PT024H.grib2 2026-05-02 03:56 628K
20260502T00Z_MSC_GDPS_GeopotentialHeight_IsbL-0250_LatLon0.15_PT024H.grib2 2026-05-02 03:56 635K
20260502T00Z_MSC_GDPS_GeopotentialHeight_IsbL-0275_LatLon0.15_PT024H.grib2 2026-05-02 03:56 638K
20260502T00Z_MSC_GDPS_GeopotentialHeight_IsbL-0300_LatLon0.15_PT024H.grib2 2026-05-02 03:56 636K
20260502T00Z_MSC_GDPS_GeopotentialHeight_IsbL-0350_LatLon0.15_PT024H.grib2 2026-05-02 03:56 627K
20260502T00Z_MSC_GDPS_GeopotentialHeight_IsbL-0400_LatLon0.15_PT024H.grib2 2026-05-02 03:56 619K
20260502T00Z_MSC_GDPS_GeopotentialHeight_IsbL-0450_LatLon0.15_PT024H.grib2 2026-05-02 03:56 610K
20260502T00Z_MSC_GDPS_GeopotentialHeight_IsbL-0500_LatLon0.15_PT024H.grib2 2026-05-02 03:56 601K
20260502T00Z_MSC_GDPS_GeopotentialHeight_IsbL-0550_LatLon0.15_PT024H.grib2 2026-05-02 03:56 524K
20260502T00Z_MSC_GDPS_GeopotentialHeight_IsbL-0600_LatLon0.15_PT024H.grib2 2026-05-02 03:56 522K
20260502T00Z_MSC_GDPS_GeopotentialHeight_IsbL-0650_LatLon0.15_PT024H.grib2 2026-05-02 03:56 687K
20260502T00Z_MSC_GDPS_GeopotentialHeight_IsbL-0700_LatLon0.15_PT024H.grib2 2026-05-02 03:56 688K
20260502T00Z_MSC_GDPS_GeopotentialHeight_IsbL-0750_LatLon0.15_PT024H.grib2 2026-05-02 03:56 688K
20260502T00Z_MSC_GDPS_GeopotentialHeight_IsbL-0800_LatLon0.15_PT024H.grib2 2026-05-02 03:56 702K
20260502T00Z_MSC_GDPS_GeopotentialHeight_IsbL-0850_LatLon0.15_PT024H.grib2 2026-05-02 03:56 707K
20260502T00Z_MSC_GDPS_GeopotentialHeight_IsbL-0875_LatLon0.15_PT024H.grib2 2026-05-02 03:56 718K
20260502T00Z_MSC_GDPS_GeopotentialHeight_IsbL-0900_LatLon0.15_PT024H.grib2 2026-05-02 03:56 724K
20260502T00Z_MSC_GDPS_GeopotentialHeight_IsbL-0925_LatLon0.15_PT024H.grib2 2026-05-02 03:56 734K
20260502T00Z_MSC_GDPS_GeopotentialHeight_IsbL-0950_LatLon0.15_PT024H.grib2 2026-05-02 03:56 739K
20260502T00Z_MSC_GDPS_GeopotentialHeight_IsbL-0970_LatLon0.15_PT024H.grib2 2026-05-02 03:56 751K
20260502T00Z_MSC_GDPS_GeopotentialHeight_IsbL-0985_LatLon0.15_PT024H.grib2 2026-05-02 03:56 766K
20260502T00Z_MSC_GDPS_GeopotentialHeight_IsbL-1000_LatLon0.15_PT024H.grib2 2026-05-02 03:56 787K
20260502T00Z_MSC_GDPS_GeopotentialHeight_IsbL-1015_LatLon0.15_PT024H.grib2 2026-05-02 03:56 806K
20260502T00Z_MSC_GDPS_Humidex_Sfc_LatLon0.15_PT024H.grib2 2026-05-02 03:56 5.3M
20260502T00Z_MSC_GDPS_IcePellets-Accum12h_Sfc_LatLon0.15_PT024H.grib2 2026-05-02 03:56 17K
20260502T00Z_MSC_GDPS_IcePellets-Accum1h_Sfc_LatLon0.15_PT024H.grib2 2026-05-02 03:56 5.5K
20260502T00Z_MSC_GDPS_IcePellets-Accum24h_Sfc_LatLon0.15_PT024H.grib2 2026-05-02 03:56 20K
20260502T00Z_MSC_GDPS_IcePellets-Accum3h_Sfc_LatLon0.15_PT024H.grib2 2026-05-02 03:56 6.8K
20260502T00Z_MSC_GDPS_IcePellets-Accum6h_Sfc_LatLon0.15_PT024H.grib2 2026-05-02 03:56 10K
20260502T00Z_MSC_GDPS_IcePellets-Accum_Sfc_LatLon0.15_PT024H.grib2 2026-05-02 03:56 22K
20260502T00Z_MSC_GDPS_KIndex_Sfc_LatLon0.15_PT024H.grib2 2026-05-02 03:56 6.4M
20260502T00Z_MSC_GDPS_LatentHeatNetFlux_Sfc_LatLon0.15_PT024H.grib2 2026-05-02 03:56 501K
20260502T00Z_MSC_GDPS_LiftedIndex-MU-VT_IsbL-0500_LatLon0.15_PT024H.grib2 2026-05-02 03:56 5.3M
20260502T00Z_MSC_GDPS_NetLongwaveRadiationFlux-Accum_Sfc_LatLon0.15_PT024H.grib2 2026-05-02 03:56 1.2M
20260502T00Z_MSC_GDPS_NetShortwaveRadiationFlux-Accum_Sfc_LatLon0.15_PT024H.grib2 2026-05-02 03:56 1.1M
20260502T00Z_MSC_GDPS_O3MixingRatio_Sfc_LatLon0.15_PT024H.grib2 2026-05-02 04:45 2.0M
20260502T00Z_MSC_GDPS_O3_EAtm_LatLon0.15_PT024H.grib2 2026-05-02 04:45 2.5M
20260502T00Z_MSC_GDPS_PlanetaryBoundaryLayerHeight_Sfc_LatLon0.15_PT024H.grib2 2026-05-02 03:56 2.4M
20260502T00Z_MSC_GDPS_Precip-Accum12h_Sfc_LatLon0.15_PT024H.grib2 2026-05-02 03:56 4.0M
20260502T00Z_MSC_GDPS_Precip-Accum1h_Sfc_LatLon0.15_PT024H.grib2 2026-05-02 03:56 3.1M
20260502T00Z_MSC_GDPS_Precip-Accum24h_Sfc_LatLon0.15_PT024H.grib2 2026-05-02 03:56 4.5M
20260502T00Z_MSC_GDPS_Precip-Accum3h_Sfc_LatLon0.15_PT024H.grib2 2026-05-02 03:56 3.4M
20260502T00Z_MSC_GDPS_Precip-Accum6h_Sfc_LatLon0.15_PT024H.grib2 2026-05-02 03:56 3.5M
20260502T00Z_MSC_GDPS_Precip-Accum_Sfc_LatLon0.15_PT024H.grib2 2026-05-02 03:56 4.3M
20260502T00Z_MSC_GDPS_PrecipRate_Sfc_LatLon0.15_PT024H.grib2 2026-05-02 03:56 2.9M
20260502T00Z_MSC_GDPS_PrecipType-Instant_Sfc_LatLon0.15_PT024H.grib2 2026-05-02 03:56 1.5M
20260502T00Z_MSC_GDPS_Pressure_MSL_LatLon0.15_PT024H.grib2 2026-05-02 03:56 721K
20260502T00Z_MSC_GDPS_Pressure_PVU-1.5_LatLon0.15_PT024H.grib2 2026-05-02 03:56 5.8M
20260502T00Z_MSC_GDPS_Pressure_PVU-1_LatLon0.15_PT024H.grib2 2026-05-02 03:56 6.0M
20260502T00Z_MSC_GDPS_Pressure_PVU-2_LatLon0.15_PT024H.grib2 2026-05-02 03:56 5.6M
20260502T00Z_MSC_GDPS_Pressure_Sfc_LatLon0.15_PT024H.grib2 2026-05-02 03:56 1.1M
20260502T00Z_MSC_GDPS_RadiativeTemp_Sfc_LatLon0.15_PT024H.grib2 2026-05-02 03:56 650K
20260502T00Z_MSC_GDPS_Rain-Accum12h_Sfc_LatLon0.15_PT024H.grib2 2026-05-02 03:56 2.7M
20260502T00Z_MSC_GDPS_Rain-Accum1h_Sfc_LatLon0.15_PT024H.grib2 2026-05-02 03:56 1.6M
20260502T00Z_MSC_GDPS_Rain-Accum24h_Sfc_LatLon0.15_PT024H.grib2 2026-05-02 03:56 3.2M
20260502T00Z_MSC_GDPS_Rain-Accum3h_Sfc_LatLon0.15_PT024H.grib2 2026-05-02 03:56 1.6M
20260502T00Z_MSC_GDPS_Rain-Accum6h_Sfc_LatLon0.15_PT024H.grib2 2026-05-02 03:56 2.2M
20260502T00Z_MSC_GDPS_Rain-Accum_Sfc_LatLon0.15_PT024H.grib2 2026-05-02 03:56 3.2M
20260502T00Z_MSC_GDPS_RelativeHumidity_AGL-2m_LatLon0.15_PT024H.grib2 2026-05-02 03:56 1.0M
20260502T00Z_MSC_GDPS_RelativeHumidity_IsbL-0010_LatLon0.15_PT024H.grib2 2026-05-02 03:56 136K
20260502T00Z_MSC_GDPS_RelativeHumidity_IsbL-0020_LatLon0.15_PT024H.grib2 2026-05-02 03:56 173K
20260502T00Z_MSC_GDPS_RelativeHumidity_IsbL-0030_LatLon0.15_PT024H.grib2 2026-05-02 03:56 271K
20260502T00Z_MSC_GDPS_RelativeHumidity_IsbL-0050_LatLon0.15_PT024H.grib2 2026-05-02 03:56 422K
20260502T00Z_MSC_GDPS_RelativeHumidity_IsbL-0100_LatLon0.15_PT024H.grib2 2026-05-02 03:56 518K
20260502T00Z_MSC_GDPS_RelativeHumidity_IsbL-0150_LatLon0.15_PT024H.grib2 2026-05-02 03:56 662K
20260502T00Z_MSC_GDPS_RelativeHumidity_IsbL-0175_LatLon0.15_PT024H.grib2 2026-05-02 03:56 587K
20260502T00Z_MSC_GDPS_RelativeHumidity_IsbL-0200_LatLon0.15_PT024H.grib2 2026-05-02 03:56 702K
20260502T00Z_MSC_GDPS_RelativeHumidity_IsbL-0225_LatLon0.15_PT024H.grib2 2026-05-02 03:56 785K
20260502T00Z_MSC_GDPS_RelativeHumidity_IsbL-0250_LatLon0.15_PT024H.grib2 2026-05-02 03:56 858K
20260502T00Z_MSC_GDPS_RelativeHumidity_IsbL-0275_LatLon0.15_PT024H.grib2 2026-05-02 03:56 881K
20260502T00Z_MSC_GDPS_RelativeHumidity_IsbL-0300_LatLon0.15_PT024H.grib2 2026-05-02 03:56 924K
20260502T00Z_MSC_GDPS_RelativeHumidity_IsbL-0350_LatLon0.15_PT024H.grib2 2026-05-02 03:56 945K
20260502T00Z_MSC_GDPS_RelativeHumidity_IsbL-0400_LatLon0.15_PT024H.grib2 2026-05-02 03:56 967K
20260502T00Z_MSC_GDPS_RelativeHumidity_IsbL-0450_LatLon0.15_PT024H.grib2 2026-05-02 03:56 1.0M
20260502T00Z_MSC_GDPS_RelativeHumidity_IsbL-0500_LatLon0.15_PT024H.grib2 2026-05-02 03:56 1.0M
20260502T00Z_MSC_GDPS_RelativeHumidity_IsbL-0550_LatLon0.15_PT024H.grib2 2026-05-02 03:56 1.1M
20260502T00Z_MSC_GDPS_RelativeHumidity_IsbL-0600_LatLon0.15_PT024H.grib2 2026-05-02 03:56 1.1M
20260502T00Z_MSC_GDPS_RelativeHumidity_IsbL-0650_LatLon0.15_PT024H.grib2 2026-05-02 03:56 1.1M
20260502T00Z_MSC_GDPS_RelativeHumidity_IsbL-0700_LatLon0.15_PT024H.grib2 2026-05-02 03:56 1.1M
20260502T00Z_MSC_GDPS_RelativeHumidity_IsbL-0750_LatLon0.15_PT024H.grib2 2026-05-02 03:56 1.2M
20260502T00Z_MSC_GDPS_RelativeHumidity_IsbL-0800_LatLon0.15_PT024H.grib2 2026-05-02 03:56 1.2M
20260502T00Z_MSC_GDPS_RelativeHumidity_IsbL-0850_LatLon0.15_PT024H.grib2 2026-05-02 03:56 1.3M
20260502T00Z_MSC_GDPS_RelativeHumidity_IsbL-0875_LatLon0.15_PT024H.grib2 2026-05-02 03:56 1.3M
20260502T00Z_MSC_GDPS_RelativeHumidity_IsbL-0900_LatLon0.15_PT024H.grib2 2026-05-02 03:56 1.3M
20260502T00Z_MSC_GDPS_RelativeHumidity_IsbL-0925_LatLon0.15_PT024H.grib2 2026-05-02 03:56 1.2M
20260502T00Z_MSC_GDPS_RelativeHumidity_IsbL-0950_LatLon0.15_PT024H.grib2 2026-05-02 03:56 1.2M
20260502T00Z_MSC_GDPS_RelativeHumidity_IsbL-0970_LatLon0.15_PT024H.grib2 2026-05-02 03:56 1.2M
20260502T00Z_MSC_GDPS_RelativeHumidity_IsbL-0985_LatLon0.15_PT024H.grib2 2026-05-02 03:56 1.1M
20260502T00Z_MSC_GDPS_RelativeHumidity_IsbL-1000_LatLon0.15_PT024H.grib2 2026-05-02 03:56 1.1M
20260502T00Z_MSC_GDPS_RelativeHumidity_IsbL-1015_LatLon0.15_PT024H.grib2 2026-05-02 03:56 1.0M
20260502T00Z_MSC_GDPS_RelativeVorticity_IsbL-0200_LatLon0.15_PT024H.grib2 2026-05-02 03:56 1.5M
20260502T00Z_MSC_GDPS_RelativeVorticity_IsbL-0250_LatLon0.15_PT024H.grib2 2026-05-02 03:56 1.3M
20260502T00Z_MSC_GDPS_RelativeVorticity_IsbL-0500_LatLon0.15_PT024H.grib2 2026-05-02 03:56 1.5M
20260502T00Z_MSC_GDPS_RelativeVorticity_IsbL-0700_LatLon0.15_PT024H.grib2 2026-05-02 03:56 1.3M
20260502T00Z_MSC_GDPS_RelativeVorticity_IsbL-0850_LatLon0.15_PT024H.grib2 2026-05-02 03:56 1.6M
20260502T00Z_MSC_GDPS_Runoff-Accum_Sfc_LatLon0.15_PT024H.grib2 2026-05-02 03:56 121K
20260502T00Z_MSC_GDPS_SensibleHeatNetFlux_Sfc_LatLon0.15_PT024H.grib2 2026-05-02 03:56 607K
20260502T00Z_MSC_GDPS_ShowalterIndex_IsbL-0500_LatLon0.15_PT024H.grib2 2026-05-02 03:56 6.2M
20260502T00Z_MSC_GDPS_Snow-Accum12h_Sfc_LatLon0.15_PT024H.grib2 2026-05-02 03:56 1.5M
20260502T00Z_MSC_GDPS_Snow-Accum1h_Sfc_LatLon0.15_PT024H.grib2 2026-05-02 03:56 1.1M
20260502T00Z_MSC_GDPS_Snow-Accum24h_Sfc_LatLon0.15_PT024H.grib2 2026-05-02 03:56 1.6M
20260502T00Z_MSC_GDPS_Snow-Accum3h_Sfc_LatLon0.15_PT024H.grib2 2026-05-02 03:56 1.1M
20260502T00Z_MSC_GDPS_Snow-Accum6h_Sfc_LatLon0.15_PT024H.grib2 2026-05-02 03:56 1.4M
20260502T00Z_MSC_GDPS_Snow-Accum_Sfc_LatLon0.15_PT024H.grib2 2026-05-02 03:56 1.7M
20260502T00Z_MSC_GDPS_SnowDensity_Sfc_LatLon0.15_PT024H.grib2 2026-05-02 03:56 254K
20260502T00Z_MSC_GDPS_SnowDepth_Sfc_LatLon0.15_PT024H.grib2 2026-05-02 03:56 1.7M
20260502T00Z_MSC_GDPS_SoilTemp_DBS-0to10cm_LatLon0.15_PT024H.grib2 2026-05-02 03:56 498K
20260502T00Z_MSC_GDPS_SoilTemp_Sfc_LatLon0.15_PT024H.grib2 2026-05-02 03:56 553K
20260502T00Z_MSC_GDPS_SoilVolumetricIceContent_Sfc_LatLon0.15_PT024H.grib2 2026-05-02 03:56 200K
20260502T00Z_MSC_GDPS_SoilVolumetricWaterContent_DBS-0to10cm_LatLon0.15_PT024H.grib2 2026-05-02 03:56 588K
20260502T00Z_MSC_GDPS_SoilVolumetricWaterContent_DBS-0to1cm_LatLon0.15_PT024H.grib2 2026-05-02 03:56 652K
20260502T00Z_MSC_GDPS_SpecificHumidity_AGL-120m_LatLon0.15_PT024H.grib2 2026-05-02 03:56 1.1M
20260502T00Z_MSC_GDPS_SpecificHumidity_AGL-2m_LatLon0.15_PT024H.grib2 2026-05-02 03:56 1.2M
20260502T00Z_MSC_GDPS_SpecificHumidity_AGL-40m_LatLon0.15_PT024H.grib2 2026-05-02 03:56 1.1M
20260502T00Z_MSC_GDPS_SpecificHumidity_AGL-80m_LatLon0.15_PT024H.grib2 2026-05-02 03:56 1.1M
20260502T00Z_MSC_GDPS_SpecificHumidity_IsbL-0001_LatLon0.15_PT024H.grib2 2026-05-02 03:56 1.0M
20260502T00Z_MSC_GDPS_SpecificHumidity_IsbL-0005_LatLon0.15_PT024H.grib2 2026-05-02 03:56 1.3M
20260502T00Z_MSC_GDPS_SpecificHumidity_IsbL-0010_LatLon0.15_PT024H.grib2 2026-05-02 03:56 1.4M
20260502T00Z_MSC_GDPS_SpecificHumidity_IsbL-0020_LatLon0.15_PT024H.grib2 2026-05-02 03:56 1.4M
20260502T00Z_MSC_GDPS_SpecificHumidity_IsbL-0030_LatLon0.15_PT024H.grib2 2026-05-02 03:56 1.4M
20260502T00Z_MSC_GDPS_SpecificHumidity_IsbL-0050_LatLon0.15_PT024H.grib2 2026-05-02 03:56 1.7M
20260502T00Z_MSC_GDPS_SpecificHumidity_IsbL-0100_LatLon0.15_PT024H.grib2 2026-05-02 03:56 1.4M
20260502T00Z_MSC_GDPS_SpecificHumidity_IsbL-0150_LatLon0.15_PT024H.grib2 2026-05-02 03:56 1.3M
20260502T00Z_MSC_GDPS_SpecificHumidity_IsbL-0175_LatLon0.15_PT024H.grib2 2026-05-02 03:56 1.3M
20260502T00Z_MSC_GDPS_SpecificHumidity_IsbL-0200_LatLon0.15_PT024H.grib2 2026-05-02 03:56 1.3M
20260502T00Z_MSC_GDPS_SpecificHumidity_IsbL-0225_LatLon0.15_PT024H.grib2 2026-05-02 03:56 1.3M
20260502T00Z_MSC_GDPS_SpecificHumidity_IsbL-0250_LatLon0.15_PT024H.grib2 2026-05-02 03:56 1.4M
20260502T00Z_MSC_GDPS_SpecificHumidity_IsbL-0275_LatLon0.15_PT024H.grib2 2026-05-02 03:56 1.3M
20260502T00Z_MSC_GDPS_SpecificHumidity_IsbL-0300_LatLon0.15_PT024H.grib2 2026-05-02 03:56 1.2M
20260502T00Z_MSC_GDPS_SpecificHumidity_IsbL-0350_LatLon0.15_PT024H.grib2 2026-05-02 03:56 1.2M
20260502T00Z_MSC_GDPS_SpecificHumidity_IsbL-0400_LatLon0.15_PT024H.grib2 2026-05-02 03:56 1.5M
20260502T00Z_MSC_GDPS_SpecificHumidity_IsbL-0450_LatLon0.15_PT024H.grib2 2026-05-02 03:56 1.3M
20260502T00Z_MSC_GDPS_SpecificHumidity_IsbL-0500_LatLon0.15_PT024H.grib2 2026-05-02 03:56 1.4M
20260502T00Z_MSC_GDPS_SpecificHumidity_IsbL-0550_LatLon0.15_PT024H.grib2 2026-05-02 03:56 1.6M
20260502T00Z_MSC_GDPS_SpecificHumidity_IsbL-0600_LatLon0.15_PT024H.grib2 2026-05-02 03:56 1.7M
20260502T00Z_MSC_GDPS_SpecificHumidity_IsbL-0650_LatLon0.15_PT024H.grib2 2026-05-02 03:56 1.5M
20260502T00Z_MSC_GDPS_SpecificHumidity_IsbL-0700_LatLon0.15_PT024H.grib2 2026-05-02 03:56 1.6M
20260502T00Z_MSC_GDPS_SpecificHumidity_IsbL-0750_LatLon0.15_PT024H.grib2 2026-05-02 03:56 1.7M
20260502T00Z_MSC_GDPS_SpecificHumidity_IsbL-0800_LatLon0.15_PT024H.grib2 2026-05-02 03:56 1.8M
20260502T00Z_MSC_GDPS_SpecificHumidity_IsbL-0850_LatLon0.15_PT024H.grib2 2026-05-02 03:56 1.9M
20260502T00Z_MSC_GDPS_SpecificHumidity_IsbL-0875_LatLon0.15_PT024H.grib2 2026-05-02 03:56 1.9M
20260502T00Z_MSC_GDPS_SpecificHumidity_IsbL-0900_LatLon0.15_PT024H.grib2 2026-05-02 03:56 1.6M
20260502T00Z_MSC_GDPS_SpecificHumidity_IsbL-0925_LatLon0.15_PT024H.grib2 2026-05-02 03:56 1.6M
20260502T00Z_MSC_GDPS_SpecificHumidity_IsbL-0950_LatLon0.15_PT024H.grib2 2026-05-02 03:56 1.6M
20260502T00Z_MSC_GDPS_SpecificHumidity_IsbL-0970_LatLon0.15_PT024H.grib2 2026-05-02 03:56 1.5M
20260502T00Z_MSC_GDPS_SpecificHumidity_IsbL-0985_LatLon0.15_PT024H.grib2 2026-05-02 03:56 1.5M
20260502T00Z_MSC_GDPS_SpecificHumidity_IsbL-1000_LatLon0.15_PT024H.grib2 2026-05-02 03:56 1.5M
20260502T00Z_MSC_GDPS_SpecificHumidity_IsbL-1015_LatLon0.15_PT024H.grib2 2026-05-02 03:56 1.4M
20260502T00Z_MSC_GDPS_SpecificHumidity_Sfc_LatLon0.15_PT024H.grib2 2026-05-02 03:56 653K
20260502T00Z_MSC_GDPS_Thickness_IsbL-0850to0700_LatLon0.15_PT024H.grib2 2026-05-02 03:56 468K
20260502T00Z_MSC_GDPS_Thickness_IsbL-1000to0500_LatLon0.15_PT024H.grib2 2026-05-02 03:56 373K
20260502T00Z_MSC_GDPS_Thickness_IsbL-1000to0850_LatLon0.15_PT024H.grib2 2026-05-02 03:56 487K
20260502T00Z_MSC_GDPS_TotalCloudCover_Sfc_LatLon0.15_PT024H.grib2 2026-05-02 03:56 818K
20260502T00Z_MSC_GDPS_TotalTotalsIndex_Sfc_LatLon0.15_PT024H.grib2 2026-05-02 03:56 6.2M
20260502T00Z_MSC_GDPS_UVIndex-ClearSky_Sfc_LatLon0.15_PT024H.grib2 2026-05-02 04:45 1.0M
20260502T00Z_MSC_GDPS_UVIndex_Sfc_LatLon0.15_PT024H.grib2 2026-05-02 04:45 1.5M
20260502T00Z_MSC_GDPS_UpwardLongwaveRadiationFlux_NTAtm_LatLon0.15_PT024H.grib2 2026-05-02 03:56 1.0M
20260502T00Z_MSC_GDPS_VerticalVelocity_IsbL-0200_LatLon0.15_PT024H.grib2 2026-05-02 03:56 1.1M
20260502T00Z_MSC_GDPS_VerticalVelocity_IsbL-0250_LatLon0.15_PT024H.grib2 2026-05-02 03:56 1.0M
20260502T00Z_MSC_GDPS_VerticalVelocity_IsbL-0500_LatLon0.15_PT024H.grib2 2026-05-02 03:56 1.3M
20260502T00Z_MSC_GDPS_VerticalVelocity_IsbL-0600_LatLon0.15_PT024H.grib2 2026-05-02 03:56 1.3M
20260502T00Z_MSC_GDPS_VerticalVelocity_IsbL-0700_LatLon0.15_PT024H.grib2 2026-05-02 03:56 1.4M
20260502T00Z_MSC_GDPS_VerticalVelocity_IsbL-0850_LatLon0.15_PT024H.grib2 2026-05-02 03:56 1.6M
20260502T00Z_MSC_GDPS_WindChill_Sfc_LatLon0.15_PT024H.grib2 2026-05-02 03:56 5.3M
20260502T00Z_MSC_GDPS_WindDir_AGL-10m_LatLon0.15_PT024H.grib2 2026-05-02 03:56 1.3M
20260502T00Z_MSC_GDPS_WindDir_AGL-120m_LatLon0.15_PT024H.grib2 2026-05-02 03:56 1.3M
20260502T00Z_MSC_GDPS_WindDir_AGL-40m_LatLon0.15_PT024H.grib2 2026-05-02 03:56 1.4M
20260502T00Z_MSC_GDPS_WindDir_AGL-80m_LatLon0.15_PT024H.grib2 2026-05-02 03:56 1.4M
20260502T00Z_MSC_GDPS_WindDir_IsbL-0001_LatLon0.15_PT024H.grib2 2026-05-02 03:56 682K
20260502T00Z_MSC_GDPS_WindDir_IsbL-0005_LatLon0.15_PT024H.grib2 2026-05-02 03:56 798K
20260502T00Z_MSC_GDPS_WindDir_IsbL-0010_LatLon0.15_PT024H.grib2 2026-05-02 03:56 841K
20260502T00Z_MSC_GDPS_WindDir_IsbL-0020_LatLon0.15_PT024H.grib2 2026-05-02 03:56 967K
20260502T00Z_MSC_GDPS_WindDir_IsbL-0030_LatLon0.15_PT024H.grib2 2026-05-02 03:56 947K
20260502T00Z_MSC_GDPS_WindDir_IsbL-0050_LatLon0.15_PT024H.grib2 2026-05-02 03:56 951K
20260502T00Z_MSC_GDPS_WindDir_IsbL-0100_LatLon0.15_PT024H.grib2 2026-05-02 03:56 1.0M
20260502T00Z_MSC_GDPS_WindDir_IsbL-0150_LatLon0.15_PT024H.grib2 2026-05-02 03:56 1.0M
20260502T00Z_MSC_GDPS_WindDir_IsbL-0175_LatLon0.15_PT024H.grib2 2026-05-02 03:56 1.1M
20260502T00Z_MSC_GDPS_WindDir_IsbL-0200_LatLon0.15_PT024H.grib2 2026-05-02 03:56 1.1M
20260502T00Z_MSC_GDPS_WindDir_IsbL-0225_LatLon0.15_PT024H.grib2 2026-05-02 03:56 1.1M
20260502T00Z_MSC_GDPS_WindDir_IsbL-0250_LatLon0.15_PT024H.grib2 2026-05-02 03:56 1.1M
20260502T00Z_MSC_GDPS_WindDir_IsbL-0275_LatLon0.15_PT024H.grib2 2026-05-02 03:56 1.2M
20260502T00Z_MSC_GDPS_WindDir_IsbL-0300_LatLon0.15_PT024H.grib2 2026-05-02 03:56 1.2M
20260502T00Z_MSC_GDPS_WindDir_IsbL-0350_LatLon0.15_PT024H.grib2 2026-05-02 03:56 1.2M
20260502T00Z_MSC_GDPS_WindDir_IsbL-0400_LatLon0.15_PT024H.grib2 2026-05-02 03:56 1.3M
20260502T00Z_MSC_GDPS_WindDir_IsbL-0450_LatLon0.15_PT024H.grib2 2026-05-02 03:56 1.3M
20260502T00Z_MSC_GDPS_WindDir_IsbL-0500_LatLon0.15_PT024H.grib2 2026-05-02 03:56 1.3M
20260502T00Z_MSC_GDPS_WindDir_IsbL-0550_LatLon0.15_PT024H.grib2 2026-05-02 03:56 1.4M
20260502T00Z_MSC_GDPS_WindDir_IsbL-0600_LatLon0.15_PT024H.grib2 2026-05-02 03:56 1.4M
20260502T00Z_MSC_GDPS_WindDir_IsbL-0650_LatLon0.15_PT024H.grib2 2026-05-02 03:56 1.5M
20260502T00Z_MSC_GDPS_WindDir_IsbL-0700_LatLon0.15_PT024H.grib2 2026-05-02 03:56 1.6M
20260502T00Z_MSC_GDPS_WindDir_IsbL-0750_LatLon0.15_PT024H.grib2 2026-05-02 03:56 1.7M
20260502T00Z_MSC_GDPS_WindDir_IsbL-0800_LatLon0.15_PT024H.grib2 2026-05-02 03:56 1.8M
20260502T00Z_MSC_GDPS_WindDir_IsbL-0850_LatLon0.15_PT024H.grib2 2026-05-02 03:56 1.9M
20260502T00Z_MSC_GDPS_WindDir_IsbL-0875_LatLon0.15_PT024H.grib2 2026-05-02 03:56 1.9M
20260502T00Z_MSC_GDPS_WindDir_IsbL-0900_LatLon0.15_PT024H.grib2 2026-05-02 03:56 1.9M
20260502T00Z_MSC_GDPS_WindDir_IsbL-0925_LatLon0.15_PT024H.grib2 2026-05-02 03:56 2.0M
20260502T00Z_MSC_GDPS_WindDir_IsbL-0950_LatLon0.15_PT024H.grib2 2026-05-02 03:56 2.0M
20260502T00Z_MSC_GDPS_WindDir_IsbL-0970_LatLon0.15_PT024H.grib2 2026-05-02 03:56 2.0M
20260502T00Z_MSC_GDPS_WindDir_IsbL-0985_LatLon0.15_PT024H.grib2 2026-05-02 03:56 2.0M
20260502T00Z_MSC_GDPS_WindDir_IsbL-1000_LatLon0.15_PT024H.grib2 2026-05-02 03:56 2.1M
20260502T00Z_MSC_GDPS_WindDir_IsbL-1015_LatLon0.15_PT024H.grib2 2026-05-02 03:56 2.0M
20260502T00Z_MSC_GDPS_WindGust-Max_AGL-10m_LatLon0.15_PT024H.grib2 2026-05-02 03:56 1.8M
20260502T00Z_MSC_GDPS_WindGust-Min_AGL-10m_LatLon0.15_PT024H.grib2 2026-05-02 03:56 2.1M
20260502T00Z_MSC_GDPS_WindGust_AGL-10m_LatLon0.15_PT024H.grib2 2026-05-02 03:56 2.1M
20260502T00Z_MSC_GDPS_WindSpeed_AGL-10m_LatLon0.15_PT024H.grib2 2026-05-02 03:56 1.1M
20260502T00Z_MSC_GDPS_WindSpeed_AGL-120m_LatLon0.15_PT024H.grib2 2026-05-02 03:56 1.3M
20260502T00Z_MSC_GDPS_WindSpeed_AGL-40m_LatLon0.15_PT024H.grib2 2026-05-02 03:56 1.2M
20260502T00Z_MSC_GDPS_WindSpeed_AGL-80m_LatLon0.15_PT024H.grib2 2026-05-02 03:56 1.3M
20260502T00Z_MSC_GDPS_WindSpeed_IsbL-0001_LatLon0.15_PT024H.grib2 2026-05-02 03:56 640K
20260502T00Z_MSC_GDPS_WindSpeed_IsbL-0005_LatLon0.15_PT024H.grib2 2026-05-02 03:56 696K
20260502T00Z_MSC_GDPS_WindSpeed_IsbL-0010_LatLon0.15_PT024H.grib2 2026-05-02 03:56 631K
20260502T00Z_MSC_GDPS_WindSpeed_IsbL-0020_LatLon0.15_PT024H.grib2 2026-05-02 03:56 668K
20260502T00Z_MSC_GDPS_WindSpeed_IsbL-0030_LatLon0.15_PT024H.grib2 2026-05-02 03:56 868K
20260502T00Z_MSC_GDPS_WindSpeed_IsbL-0050_LatLon0.15_PT024H.grib2 2026-05-02 03:56 914K
20260502T00Z_MSC_GDPS_WindSpeed_IsbL-0100_LatLon0.15_PT024H.grib2 2026-05-02 03:56 1.1M
20260502T00Z_MSC_GDPS_WindSpeed_IsbL-0150_LatLon0.15_PT024H.grib2 2026-05-02 03:56 947K
20260502T00Z_MSC_GDPS_WindSpeed_IsbL-0175_LatLon0.15_PT024H.grib2 2026-05-02 03:56 1.0M
20260502T00Z_MSC_GDPS_WindSpeed_IsbL-0200_LatLon0.15_PT024H.grib2 2026-05-02 03:56 1.1M
20260502T00Z_MSC_GDPS_WindSpeed_IsbL-0225_LatLon0.15_PT024H.grib2 2026-05-02 03:56 1.1M
20260502T00Z_MSC_GDPS_WindSpeed_IsbL-0250_LatLon0.15_PT024H.grib2 2026-05-02 03:56 1.1M
20260502T00Z_MSC_GDPS_WindSpeed_IsbL-0275_LatLon0.15_PT024H.grib2 2026-05-02 03:56 1.1M
20260502T00Z_MSC_GDPS_WindSpeed_IsbL-0300_LatLon0.15_PT024H.grib2 2026-05-02 03:56 1.1M
20260502T00Z_MSC_GDPS_WindSpeed_IsbL-0350_LatLon0.15_PT024H.grib2 2026-05-02 03:56 1.1M
20260502T00Z_MSC_GDPS_WindSpeed_IsbL-0400_LatLon0.15_PT024H.grib2 2026-05-02 03:56 1.1M
20260502T00Z_MSC_GDPS_WindSpeed_IsbL-0450_LatLon0.15_PT024H.grib2 2026-05-02 03:56 1.1M
20260502T00Z_MSC_GDPS_WindSpeed_IsbL-0500_LatLon0.15_PT024H.grib2 2026-05-02 03:56 1.1M
20260502T00Z_MSC_GDPS_WindSpeed_IsbL-0550_LatLon0.15_PT024H.grib2 2026-05-02 03:56 1.1M
20260502T00Z_MSC_GDPS_WindSpeed_IsbL-0600_LatLon0.15_PT024H.grib2 2026-05-02 03:56 1.4M
20260502T00Z_MSC_GDPS_WindSpeed_IsbL-0650_LatLon0.15_PT024H.grib2 2026-05-02 03:56 1.4M
20260502T00Z_MSC_GDPS_WindSpeed_IsbL-0700_LatLon0.15_PT024H.grib2 2026-05-02 03:56 1.5M
20260502T00Z_MSC_GDPS_WindSpeed_IsbL-0750_LatLon0.15_PT024H.grib2 2026-05-02 03:56 1.3M
20260502T00Z_MSC_GDPS_WindSpeed_IsbL-0800_LatLon0.15_PT024H.grib2 2026-05-02 03:56 1.4M
20260502T00Z_MSC_GDPS_WindSpeed_IsbL-0850_LatLon0.15_PT024H.grib2 2026-05-02 03:56 1.4M
20260502T00Z_MSC_GDPS_WindSpeed_IsbL-0875_LatLon0.15_PT024H.grib2 2026-05-02 03:56 1.8M
20260502T00Z_MSC_GDPS_WindSpeed_IsbL-0900_LatLon0.15_PT024H.grib2 2026-05-02 03:56 1.8M
20260502T00Z_MSC_GDPS_WindSpeed_IsbL-0925_LatLon0.15_PT024H.grib2 2026-05-02 03:56 1.8M
20260502T00Z_MSC_GDPS_WindSpeed_IsbL-0950_LatLon0.15_PT024H.grib2 2026-05-02 03:56 1.8M
20260502T00Z_MSC_GDPS_WindSpeed_IsbL-0970_LatLon0.15_PT024H.grib2 2026-05-02 03:56 1.9M
20260502T00Z_MSC_GDPS_WindSpeed_IsbL-0985_LatLon0.15_PT024H.grib2 2026-05-02 03:56 1.9M
20260502T00Z_MSC_GDPS_WindSpeed_IsbL-1000_LatLon0.15_PT024H.grib2 2026-05-02 03:56 1.9M
20260502T00Z_MSC_GDPS_WindSpeed_IsbL-1015_LatLon0.15_PT024H.grib2 2026-05-02 03:56 1.8M
20260502T00Z_MSC_GDPS_WindU_AGL-10m_LatLon0.15_PT024H.grib2 2026-05-02 03:56 1.3M
20260502T00Z_MSC_GDPS_WindU_AGL-120m_LatLon0.15_PT024H.grib2 2026-05-02 03:56 1.0M
20260502T00Z_MSC_GDPS_WindU_AGL-40m_LatLon0.15_PT024H.grib2 2026-05-02 03:56 1.0M
20260502T00Z_MSC_GDPS_WindU_AGL-80m_LatLon0.15_PT024H.grib2 2026-05-02 03:56 1.0M
20260502T00Z_MSC_GDPS_WindU_IsbL-0001_LatLon0.15_PT024H.grib2 2026-05-02 03:56 501K
20260502T00Z_MSC_GDPS_WindU_IsbL-0005_LatLon0.15_PT024H.grib2 2026-05-02 03:56 697K
20260502T00Z_MSC_GDPS_WindU_IsbL-0010_LatLon0.15_PT024H.grib2 2026-05-02 03:56 705K
20260502T00Z_MSC_GDPS_WindU_IsbL-0020_LatLon0.15_PT024H.grib2 2026-05-02 03:56 733K
20260502T00Z_MSC_GDPS_WindU_IsbL-0030_LatLon0.15_PT024H.grib2 2026-05-02 03:56 744K
20260502T00Z_MSC_GDPS_WindU_IsbL-0050_LatLon0.15_PT024H.grib2 2026-05-02 03:56 772K
20260502T00Z_MSC_GDPS_WindU_IsbL-0100_LatLon0.15_PT024H.grib2 2026-05-02 03:56 927K
20260502T00Z_MSC_GDPS_WindU_IsbL-0150_LatLon0.15_PT024H.grib2 2026-05-02 03:56 1.0M
20260502T00Z_MSC_GDPS_WindU_IsbL-0175_LatLon0.15_PT024H.grib2 2026-05-02 03:56 1.0M
20260502T00Z_MSC_GDPS_WindU_IsbL-0200_LatLon0.15_PT024H.grib2 2026-05-02 03:56 1.0M
20260502T00Z_MSC_GDPS_WindU_IsbL-0225_LatLon0.15_PT024H.grib2 2026-05-02 03:56 850K
20260502T00Z_MSC_GDPS_WindU_IsbL-0250_LatLon0.15_PT024H.grib2 2026-05-02 03:56 853K
20260502T00Z_MSC_GDPS_WindU_IsbL-0275_LatLon0.15_PT024H.grib2 2026-05-02 03:56 882K
20260502T00Z_MSC_GDPS_WindU_IsbL-0300_LatLon0.15_PT024H.grib2 2026-05-02 03:56 875K
20260502T00Z_MSC_GDPS_WindU_IsbL-0350_LatLon0.15_PT024H.grib2 2026-05-02 03:56 890K
20260502T00Z_MSC_GDPS_WindU_IsbL-0400_LatLon0.15_PT024H.grib2 2026-05-02 03:56 893K
20260502T00Z_MSC_GDPS_WindU_IsbL-0450_LatLon0.15_PT024H.grib2 2026-05-02 03:56 1.1M
20260502T00Z_MSC_GDPS_WindU_IsbL-0500_LatLon0.15_PT024H.grib2 2026-05-02 03:56 1.1M
20260502T00Z_MSC_GDPS_WindU_IsbL-0550_LatLon0.15_PT024H.grib2 2026-05-02 03:56 1.1M
20260502T00Z_MSC_GDPS_WindU_IsbL-0600_LatLon0.15_PT024H.grib2 2026-05-02 03:56 1.1M
20260502T00Z_MSC_GDPS_WindU_IsbL-0650_LatLon0.15_PT024H.grib2 2026-05-02 03:56 1.2M
20260502T00Z_MSC_GDPS_WindU_IsbL-0700_LatLon0.15_PT024H.grib2 2026-05-02 03:56 1.2M
20260502T00Z_MSC_GDPS_WindU_IsbL-0750_LatLon0.15_PT024H.grib2 2026-05-02 03:56 1.3M
20260502T00Z_MSC_GDPS_WindU_IsbL-0800_LatLon0.15_PT024H.grib2 2026-05-02 03:56 1.4M
20260502T00Z_MSC_GDPS_WindU_IsbL-0850_LatLon0.15_PT024H.grib2 2026-05-02 03:56 1.4M
20260502T00Z_MSC_GDPS_WindU_IsbL-0875_LatLon0.15_PT024H.grib2 2026-05-02 03:56 1.5M
20260502T00Z_MSC_GDPS_WindU_IsbL-0900_LatLon0.15_PT024H.grib2 2026-05-02 03:56 1.5M
20260502T00Z_MSC_GDPS_WindU_IsbL-0925_LatLon0.15_PT024H.grib2 2026-05-02 03:56 1.5M
20260502T00Z_MSC_GDPS_WindU_IsbL-0950_LatLon0.15_PT024H.grib2 2026-05-02 03:56 1.4M
20260502T00Z_MSC_GDPS_WindU_IsbL-0970_LatLon0.15_PT024H.grib2 2026-05-02 03:56 1.4M
20260502T00Z_MSC_GDPS_WindU_IsbL-0985_LatLon0.15_PT024H.grib2 2026-05-02 03:56 1.4M
20260502T00Z_MSC_GDPS_WindU_IsbL-1000_LatLon0.15_PT024H.grib2 2026-05-02 03:56 1.4M
20260502T00Z_MSC_GDPS_WindU_IsbL-1015_LatLon0.15_PT024H.grib2 2026-05-02 03:56 1.4M
20260502T00Z_MSC_GDPS_WindV_AGL-10m_LatLon0.15_PT024H.grib2 2026-05-02 03:56 1.3M
20260502T00Z_MSC_GDPS_WindV_AGL-120m_LatLon0.15_PT024H.grib2 2026-05-02 03:56 1.0M
20260502T00Z_MSC_GDPS_WindV_AGL-40m_LatLon0.15_PT024H.grib2 2026-05-02 03:56 969K
20260502T00Z_MSC_GDPS_WindV_AGL-80m_LatLon0.15_PT024H.grib2 2026-05-02 03:56 1.0M
20260502T00Z_MSC_GDPS_WindV_IsbL-0001_LatLon0.15_PT024H.grib2 2026-05-02 03:56 779K
20260502T00Z_MSC_GDPS_WindV_IsbL-0005_LatLon0.15_PT024H.grib2 2026-05-02 03:56 859K
20260502T00Z_MSC_GDPS_WindV_IsbL-0010_LatLon0.15_PT024H.grib2 2026-05-02 03:56 888K
20260502T00Z_MSC_GDPS_WindV_IsbL-0020_LatLon0.15_PT024H.grib2 2026-05-02 03:56 934K
20260502T00Z_MSC_GDPS_WindV_IsbL-0030_LatLon0.15_PT024H.grib2 2026-05-02 03:56 939K
20260502T00Z_MSC_GDPS_WindV_IsbL-0050_LatLon0.15_PT024H.grib2 2026-05-02 03:56 906K
20260502T00Z_MSC_GDPS_WindV_IsbL-0100_LatLon0.15_PT024H.grib2 2026-05-02 03:56 1.1M
20260502T00Z_MSC_GDPS_WindV_IsbL-0150_LatLon0.15_PT024H.grib2 2026-05-02 03:56 1.0M
20260502T00Z_MSC_GDPS_WindV_IsbL-0175_LatLon0.15_PT024H.grib2 2026-05-02 03:56 1.0M
20260502T00Z_MSC_GDPS_WindV_IsbL-0200_LatLon0.15_PT024H.grib2 2026-05-02 03:56 839K
20260502T00Z_MSC_GDPS_WindV_IsbL-0225_LatLon0.15_PT024H.grib2 2026-05-02 03:56 848K
20260502T00Z_MSC_GDPS_WindV_IsbL-0250_LatLon0.15_PT024H.grib2 2026-05-02 03:56 849K
20260502T00Z_MSC_GDPS_WindV_IsbL-0275_LatLon0.15_PT024H.grib2 2026-05-02 03:56 934K
20260502T00Z_MSC_GDPS_WindV_IsbL-0300_LatLon0.15_PT024H.grib2 2026-05-02 03:56 925K
20260502T00Z_MSC_GDPS_WindV_IsbL-0350_LatLon0.15_PT024H.grib2 2026-05-02 03:56 878K
20260502T00Z_MSC_GDPS_WindV_IsbL-0400_LatLon0.15_PT024H.grib2 2026-05-02 03:56 883K
20260502T00Z_MSC_GDPS_WindV_IsbL-0450_LatLon0.15_PT024H.grib2 2026-05-02 03:56 1.1M
20260502T00Z_MSC_GDPS_WindV_IsbL-0500_LatLon0.15_PT024H.grib2 2026-05-02 03:56 1.1M
20260502T00Z_MSC_GDPS_WindV_IsbL-0550_LatLon0.15_PT024H.grib2 2026-05-02 03:56 1.1M
20260502T00Z_MSC_GDPS_WindV_IsbL-0600_LatLon0.15_PT024H.grib2 2026-05-02 03:56 1.1M
20260502T00Z_MSC_GDPS_WindV_IsbL-0650_LatLon0.15_PT024H.grib2 2026-05-02 03:56 1.2M
20260502T00Z_MSC_GDPS_WindV_IsbL-0700_LatLon0.15_PT024H.grib2 2026-05-02 03:56 1.2M
20260502T00Z_MSC_GDPS_WindV_IsbL-0750_LatLon0.15_PT024H.grib2 2026-05-02 03:56 1.3M
20260502T00Z_MSC_GDPS_WindV_IsbL-0800_LatLon0.15_PT024H.grib2 2026-05-02 03:56 1.3M
20260502T00Z_MSC_GDPS_WindV_IsbL-0850_LatLon0.15_PT024H.grib2 2026-05-02 03:56 1.4M
20260502T00Z_MSC_GDPS_WindV_IsbL-0875_LatLon0.15_PT024H.grib2 2026-05-02 03:56 1.4M
20260502T00Z_MSC_GDPS_WindV_IsbL-0900_LatLon0.15_PT024H.grib2 2026-05-02 03:56 1.5M
20260502T00Z_MSC_GDPS_WindV_IsbL-0925_LatLon0.15_PT024H.grib2 2026-05-02 03:56 1.5M
20260502T00Z_MSC_GDPS_WindV_IsbL-0950_LatLon0.15_PT024H.grib2 2026-05-02 03:56 1.4M
20260502T00Z_MSC_GDPS_WindV_IsbL-0970_LatLon0.15_PT024H.grib2 2026-05-02 03:56 1.4M
20260502T00Z_MSC_GDPS_WindV_IsbL-0985_LatLon0.15_PT024H.grib2 2026-05-02 03:56 1.4M
20260502T00Z_MSC_GDPS_WindV_IsbL-1000_LatLon0.15_PT024H.grib2 2026-05-02 03:56 1.4M
20260502T00Z_MSC_GDPS_WindV_IsbL-1015_LatLon0.15_PT024H.grib2 2026-05-02 03:56 1.3M